Time,TemperatureF,DewpointF,PressureIn,WindDirection,WindDirectionDegrees,WindSpeedMPH,WindSpeedGustMPH,Humidity,HourlyPrecipIn,Conditions,Clouds,dailyrainin,SoftwareType,DateUTC
2013-04-27 00:00:00,60.3,54.1,29.95,East,92,0.0,3.0,80,0.00,,,0.21,VWS V14.01,2013-04-26 22:00:00,
2013-04-27 00:05:00,60.7,54.5,29.94,East,92,0.0,2.0,80,0.00,,,0.00,VWS V14.01,2013-04-26 22:05:00,
2013-04-27 00:10:00,60.9,54.7,29.94,East,92,3.0,3.0,80,0.00,,,0.00,VWS V14.01,2013-04-26 22:10:00,
2013-04-27 00:15:00,61.2,55.0,29.94,East,92,5.0,5.0,80,0.00,,,0.00,VWS V14.01,2013-04-26 22:15:00,
2013-04-27 00:20:00,61.2,55.0,29.94,East,92,0.0,5.0,80,0.00,,,0.00,VWS V14.01,2013-04-26 22:20:00,
2013-04-27 00:25:00,61.3,55.1,29.94,East,94,5.0,5.0,80,0.00,,,0.00,VWS V14.01,2013-04-26 22:25:00,
2013-04-27 00:30:00,61.4,55.2,29.94,East,96,2.0,5.0,80,0.00,,,0.00,VWS V14.01,2013-04-26 22:30:00,
2013-04-27 00:35:00,61.5,55.3,29.94,East,96,2.0,3.0,80,0.00,,,0.00,VWS V14.01,2013-04-26 22:35:00,
2013-04-27 00:40:00,61.4,55.2,29.94,East,96,0.0,3.0,80,0.00,,,0.00,VWS V14.01,2013-04-26 22:40:00,
2013-04-27 00:45:00,61.3,55.1,29.94,East,96,1.0,2.0,80,0.00,,,0.00,VWS V14.01,2013-04-26 22:45:00,
2013-04-27 00:50:00,61.5,55.3,29.93,East,96,0.0,2.0,80,0.00,,,0.00,VWS V14.01,2013-04-26 22:50:00,
2013-04-27 00:55:00,61.3,55.1,29.93,East,96,0.0,1.0,80,0.00,,,0.00,VWS V14.01,2013-04-26 22:55:00,
2013-04-27 01:00:00,61.0,54.8,29.92,East,96,3.0,5.0,80,0.00,,,0.00,VWS V14.01,2013-04-26 23:00:00,
2013-04-27 01:05:00,61.0,54.8,29.92,East,96,0.0,3.0,80,0.00,,,0.00,VWS V14.01,2013-04-26 23:05:00,
2013-04-27 01:10:00,61.0,54.8,29.92,East,96,1.0,3.0,80,0.00,,,0.00,VWS V14.01,2013-04-26 23:10:00,
2013-04-27 01:15:00,61.1,54.9,29.92,East,96,1.0,3.0,80,0.00,,,0.00,VWS V14.01,2013-04-26 23:15:00,
2013-04-27 01:20:00,60.6,54.4,29.92,East,96,1.0,5.0,80,0.00,,,0.00,VWS V14.01,2013-04-26 23:20:00,
2013-04-27 01:25:00,60.6,54.8,29.92,East,96,0.0,1.0,81,0.00,,,0.00,VWS V14.01,2013-04-26 23:25:00,
2013-04-27 01:30:00,60.9,55.0,29.92,East,96,2.0,3.0,81,0.00,,,0.00,VWS V14.01,2013-04-26 23:30:00,
2013-04-27 01:36:00,61.1,55.2,29.91,East,96,3.0,3.0,81,0.00,,,0.00,VWS V14.01,2013-04-26 23:36:00,
2013-04-27 01:40:00,61.3,55.4,29.91,East,96,5.0,5.0,81,0.00,,,0.00,VWS V14.01,2013-04-26 23:40:00,
2013-04-27 01:41:00,61.3,55.4,29.91,East,96,2.0,3.0,81,0.00,,,0.00,VWS V14.01,2013-04-26 23:41:00,
2013-04-27 01:46:00,61.8,55.2,29.90,East,96,6.0,6.0,79,0.00,,,0.00,VWS V14.01,2013-04-26 23:46:00,
2013-04-27 01:50:00,62.0,55.1,29.89,East,89,3.0,7.0,78,0.00,,,0.00,VWS V14.01,2013-04-26 23:50:00,
2013-04-27 01:51:00,62.0,55.1,29.90,East,88,5.0,7.0,78,0.00,,,0.00,VWS V14.01,2013-04-26 23:51:00,
2013-04-27 02:00:00,62.1,54.5,29.89,East,89,2.0,5.0,76,0.00,,,0.00,VWS V14.01,2013-04-27 00:00:00,
2013-04-27 02:05:00,62.0,54.4,29.89,East,89,5.0,6.0,76,0.00,,,0.00,VWS V14.01,2013-04-27 00:05:00,
2013-04-27 02:10:00,62.2,54.2,29.89,East,87,6.0,7.0,75,0.00,,,0.00,VWS V14.01,2013-04-27 00:10:00,
2013-04-27 02:15:00,62.3,53.9,29.89,East,86,0.0,1.0,74,0.00,,,0.00,VWS V14.01,2013-04-27 00:15:00,
2013-04-27 02:20:00,62.5,54.1,29.89,East,86,3.0,6.0,74,0.00,,,0.00,VWS V14.01,2013-04-27 00:20:00,
2013-04-27 02:25:00,62.7,53.5,29.89,East,86,2.0,3.0,72,0.00,,,0.00,VWS V14.01,2013-04-27 00:25:00,
2013-04-27 02:30:00,62.4,53.6,29.89,East,86,2.0,3.0,73,0.00,,,0.00,VWS V14.01,2013-04-27 00:30:00,
2013-04-27 02:35:00,62.2,53.5,29.89,East,86,3.0,5.0,73,0.00,,,0.00,VWS V14.01,2013-04-27 00:35:00,
2013-04-27 02:40:00,62.0,53.6,29.88,East,86,3.0,5.0,74,0.00,,,0.00,VWS V14.01,2013-04-27 00:40:00,
2013-04-27 02:45:00,62.0,53.6,29.88,East,86,5.0,5.0,74,0.00,,,0.00,VWS V14.01,2013-04-27 00:45:00,
2013-04-27 02:50:00,62.0,53.6,29.88,East,86,1.0,5.0,74,0.00,,,0.00,VWS V14.01,2013-04-27 00:50:00,
2013-04-27 02:55:00,61.7,53.3,29.87,East,86,5.0,5.0,74,0.00,,,0.00,VWS V14.01,2013-04-27 00:55:00,
2013-04-27 03:00:00,61.6,53.6,29.87,East,86,3.0,6.0,75,0.00,,,0.00,VWS V14.01,2013-04-27 01:00:00,
2013-04-27 03:05:00,61.4,53.4,29.87,ENE,65,3.0,5.0,75,0.00,,,0.00,VWS V14.01,2013-04-27 01:05:00,
2013-04-27 03:10:00,61.8,53.8,29.87,ENE,65,1.0,5.0,75,0.00,,,0.00,VWS V14.01,2013-04-27 01:10:00,
2013-04-27 03:15:00,61.9,54.3,29.87,ENE,65,3.0,3.0,76,0.00,,,0.00,VWS V14.01,2013-04-27 01:15:00,
2013-04-27 03:20:00,61.5,53.5,29.87,ENE,65,0.0,3.0,75,0.00,,,0.00,VWS V14.01,2013-04-27 01:20:00,
2013-04-27 03:25:00,61.0,53.8,29.87,ENE,65,4.0,5.0,77,0.01,,,0.01,VWS V14.01,2013-04-27 01:25:00,
2013-04-27 03:30:00,61.6,54.3,29.86,ENE,65,3.0,5.0,77,0.01,,,0.01,VWS V14.01,2013-04-27 01:30:00,
2013-04-27 03:35:00,62.0,54.4,29.86,ENE,65,3.0,4.0,76,0.01,,,0.01,VWS V14.01,2013-04-27 01:35:00,
2013-04-27 03:40:00,61.8,54.2,29.86,ENE,65,4.0,4.0,76,0.01,,,0.01,VWS V14.01,2013-04-27 01:40:00,
2013-04-27 03:45:00,60.8,54.3,29.86,ENE,65,3.0,4.0,79,0.01,,,0.01,VWS V14.01,2013-04-27 01:45:00,
2013-04-27 03:50:00,60.6,54.1,29.87,ENE,65,2.0,4.0,79,0.01,,,0.01,VWS V14.01,2013-04-27 01:50:00,
2013-04-27 03:55:00,60.8,54.6,29.86,ENE,65,3.0,7.0,80,0.01,,,0.01,VWS V14.01,2013-04-27 01:55:00,
2013-04-27 04:00:00,61.4,54.8,29.85,ENE,65,2.0,7.0,79,0.01,,,0.01,VWS V14.01,2013-04-27 02:00:00,
2013-04-27 04:05:00,61.7,55.1,29.85,ENE,65,0.0,3.0,79,0.01,,,0.01,VWS V14.01,2013-04-27 02:05:00,
2013-04-27 04:10:00,61.6,55.0,29.85,ENE,65,2.0,3.0,79,0.01,,,0.01,VWS V14.01,2013-04-27 02:10:00,
2013-04-27 04:15:00,61.3,54.7,29.85,ENE,65,0.0,0.0,79,0.01,,,0.01,VWS V14.01,2013-04-27 02:15:00,
2013-04-27 04:20:00,61.3,55.1,29.85,ENE,65,1.0,2.0,80,0.01,,,0.01,VWS V14.01,2013-04-27 02:20:00,
2013-04-27 04:26:00,61.5,54.9,29.85,ENE,65,1.0,3.0,79,0.01,,,0.01,VWS V14.01,2013-04-27 02:26:00,
2013-04-27 04:30:00,61.3,54.4,29.84,ENE,65,3.0,5.0,78,0.01,,,0.01,VWS V14.01,2013-04-27 02:30:00,
2013-04-27 04:31:00,61.4,54.5,29.84,ENE,65,3.0,3.0,78,0.01,,,0.01,VWS V14.01,2013-04-27 02:31:00,
2013-04-27 04:36:00,61.3,54.4,29.84,ENE,65,3.0,5.0,78,0.00,,,0.01,VWS V14.01,2013-04-27 02:36:00,
2013-04-27 04:40:00,62.0,54.7,29.84,ENE,65,3.0,5.0,77,0.00,,,0.01,VWS V14.01,2013-04-27 02:40:00,
2013-04-27 04:41:00,61.9,54.6,29.84,ENE,65,2.0,5.0,77,0.00,,,0.01,VWS V14.01,2013-04-27 02:41:00,
2013-04-27 04:46:00,62.0,54.7,29.84,ENE,65,1.0,3.0,77,0.00,,,0.01,VWS V14.01,2013-04-27 02:46:00,
2013-04-27 04:50:00,61.1,54.2,29.84,ENE,64,3.0,5.0,78,0.00,,,0.01,VWS V14.01,2013-04-27 02:50:00,
2013-04-27 04:51:00,61.2,53.9,29.84,ENE,65,5.0,5.0,77,0.00,,,0.01,VWS V14.01,2013-04-27 02:51:00,
2013-04-27 04:56:00,60.8,54.3,29.84,ENE,63,3.0,5.0,79,0.00,,,0.01,VWS V14.01,2013-04-27 02:56:00,
2013-04-27 05:00:00,61.6,55.0,29.84,ENE,76,4.0,5.0,79,0.00,,,0.01,VWS V14.01,2013-04-27 03:00:00,
2013-04-27 05:01:00,61.5,54.9,29.84,ENE,66,2.0,5.0,79,0.00,,,0.01,VWS V14.01,2013-04-27 03:01:00,
2013-04-27 05:06:00,61.8,55.2,29.85,ESE,107,3.0,6.0,79,0.00,,,0.01,VWS V14.01,2013-04-27 03:06:00,
2013-04-27 05:10:00,61.9,56.0,29.86,SSE,156,5.0,6.0,81,0.00,,,0.01,VWS V14.01,2013-04-27 03:10:00,
2013-04-27 05:11:00,61.9,56.0,29.86,SE,142,3.0,6.0,81,0.00,,,0.01,VWS V14.01,2013-04-27 03:11:00,
2013-04-27 05:16:00,61.9,56.3,29.87,SSE,163,1.0,5.0,82,0.00,,,0.01,VWS V14.01,2013-04-27 03:16:00,
2013-04-27 05:20:00,61.7,56.2,29.88,SSE,163,1.0,5.0,82,0.00,,,0.01,VWS V14.01,2013-04-27 03:20:00,
2013-04-27 05:21:00,61.7,56.2,29.88,SSE,163,1.0,5.0,82,0.00,,,0.01,VWS V14.01,2013-04-27 03:21:00,
2013-04-27 05:26:00,61.3,55.8,29.88,SSE,163,1.0,3.0,82,0.00,,,0.01,VWS V14.01,2013-04-27 03:26:00,
2013-04-27 05:30:00,61.2,56.0,29.87,SSE,163,1.0,3.0,83,0.00,,,0.01,VWS V14.01,2013-04-27 03:30:00,
2013-04-27 05:31:00,61.2,55.7,29.88,SSE,163,1.0,3.0,82,0.00,,,0.01,VWS V14.01,2013-04-27 03:31:00,
2013-04-27 05:36:00,61.3,56.1,29.87,SSE,163,3.0,4.0,83,0.00,,,0.01,VWS V14.01,2013-04-27 03:36:00,
2013-04-27 05:40:00,61.4,56.5,29.87,SSE,163,1.0,4.0,84,0.01,,,0.02,VWS V14.01,2013-04-27 03:40:00,
2013-04-27 05:41:00,61.5,56.6,29.87,SSE,163,3.0,4.0,84,0.01,,,0.02,VWS V14.01,2013-04-27 03:41:00,
2013-04-27 05:46:00,61.4,56.9,29.87,SSE,154,5.0,7.0,85,0.01,,,0.02,VWS V14.01,2013-04-27 03:46:00,
2013-04-27 05:50:00,61.4,56.9,29.86,ESE,110,9.0,9.0,85,0.01,,,0.02,VWS V14.01,2013-04-27 03:50:00,
2013-04-27 05:51:00,61.4,56.9,29.86,SE,124,6.0,8.0,85,0.01,,,0.02,VWS V14.01,2013-04-27 03:51:00,
2013-04-27 05:56:00,61.6,56.4,29.86,SE,137,12.0,12.0,83,0.01,,,0.02,VWS V14.01,2013-04-27 03:56:00,
2013-04-27 06:00:00,62.5,55.6,29.86,SE,139,8.0,16.0,78,0.01,,,0.02,VWS V14.01,2013-04-27 04:00:00,
2013-04-27 06:01:00,62.4,55.5,29.86,SE,131,7.0,16.0,78,0.01,,,0.02,VWS V14.01,2013-04-27 04:01:00,
2013-04-27 06:06:00,62.5,55.2,29.86,SE,142,13.0,15.0,77,0.01,,,0.02,VWS V14.01,2013-04-27 04:06:00,
2013-04-27 06:10:00,62.5,55.2,29.85,SE,138,9.0,15.0,77,0.01,,,0.02,VWS V14.01,2013-04-27 04:10:00,
2013-04-27 06:11:00,62.6,55.3,29.85,SE,135,4.0,15.0,77,0.01,,,0.02,VWS V14.01,2013-04-27 04:11:00,
2013-04-27 06:16:00,62.5,55.2,29.85,SE,144,10.0,12.0,77,0.01,,,0.02,VWS V14.01,2013-04-27 04:16:00,
2013-04-27 06:20:00,62.5,54.8,29.85,SE,145,18.0,21.0,76,0.01,,,0.02,VWS V14.01,2013-04-27 04:20:00,
2013-04-27 06:21:00,62.5,55.2,29.85,SE,131,8.0,15.0,77,0.01,,,0.02,VWS V14.01,2013-04-27 04:21:00,
2013-04-27 06:26:00,62.2,54.5,29.84,ESE,123,11.0,18.0,76,0.01,,,0.02,VWS V14.01,2013-04-27 04:26:00,
2013-04-27 06:30:00,61.9,54.6,29.84,SE,129,10.0,18.0,77,0.01,,,0.02,VWS V14.01,2013-04-27 04:30:00,
2013-04-27 06:31:00,62.0,54.7,29.84,SSE,149,7.0,18.0,77,0.01,,,0.02,VWS V14.01,2013-04-27 04:31:00,
2013-04-27 06:36:00,61.6,54.7,29.84,SE,146,11.0,14.0,78,0.02,,,0.03,VWS V14.01,2013-04-27 04:36:00,
2013-04-27 06:40:00,61.4,54.5,29.83,SE,140,5.0,14.0,78,0.02,,,0.03,VWS V14.01,2013-04-27 04:40:00,
2013-04-27 06:41:00,61.5,54.6,29.83,SE,128,7.0,14.0,78,0.02,,,0.03,VWS V14.01,2013-04-27 04:41:00,
2013-04-27 06:46:00,61.7,54.8,29.83,SSE,160,7.0,14.0,78,0.01,,,0.03,VWS V14.01,2013-04-27 04:46:00,
2013-04-27 06:50:00,61.8,53.8,29.83,SE,138,14.0,18.0,75,0.01,,,0.03,VWS V14.01,2013-04-27 04:50:00,
2013-04-27 06:51:00,61.7,54.1,29.83,SE,128,17.0,17.0,76,0.01,,,0.03,VWS V14.01,2013-04-27 04:51:00,
2013-04-27 06:56:00,62.2,53.5,29.83,SE,131,12.0,19.0,73,0.01,,,0.03,VWS V14.01,2013-04-27 04:56:00,
2013-04-27 07:00:00,62.6,53.1,29.83,SE,142,7.0,19.0,71,0.01,,,0.03,VWS V14.01,2013-04-27 05:00:00,
2013-04-27 07:01:00,62.6,53.1,29.83,SE,135,17.0,19.0,71,0.01,,,0.03,VWS V14.01,2013-04-27 05:01:00,
2013-04-27 07:06:00,62.6,53.5,29.83,SE,136,13.0,15.0,72,0.01,,,0.03,VWS V14.01,2013-04-27 05:06:00,
2013-04-27 07:10:00,62.5,53.7,29.83,SE,137,12.0,15.0,73,0.01,,,0.03,VWS V14.01,2013-04-27 05:10:00,
2013-04-27 07:11:00,62.5,53.7,29.83,SE,138,14.0,15.0,73,0.01,,,0.03,VWS V14.01,2013-04-27 05:11:00,
2013-04-27 07:16:00,62.4,54.0,29.84,ESE,119,10.0,13.0,74,0.01,,,0.03,VWS V14.01,2013-04-27 05:16:00,
2013-04-27 07:20:00,62.3,53.9,29.84,SSE,159,7.0,13.0,74,0.01,,,0.03,VWS V14.01,2013-04-27 05:20:00,
2013-04-27 07:21:00,62.3,53.9,29.84,SE,141,9.0,13.0,74,0.01,,,0.03,VWS V14.01,2013-04-27 05:21:00,
2013-04-27 07:26:00,62.2,53.8,29.84,SE,142,6.0,10.0,74,0.01,,,0.03,VWS V14.01,2013-04-27 05:26:00,
2013-04-27 07:30:00,62.2,54.2,29.84,ESE,123,7.0,13.0,75,0.01,,,0.03,VWS V14.01,2013-04-27 05:30:00,
2013-04-27 07:31:00,62.2,54.2,29.84,SE,128,4.0,13.0,75,0.01,,,0.03,VWS V14.01,2013-04-27 05:31:00,
2013-04-27 07:36:00,62.1,54.1,29.84,ESE,122,0.0,10.0,75,0.01,,,0.03,VWS V14.01,2013-04-27 05:36:00,
2013-04-27 07:40:00,62.0,53.6,29.85,SSE,150,8.0,10.0,74,0.01,,,0.03,VWS V14.01,2013-04-27 05:40:00,
2013-04-27 07:41:00,62.0,53.6,29.85,SE,132,5.0,10.0,74,0.01,,,0.03,VWS V14.01,2013-04-27 05:41:00,
2013-04-27 07:46:00,61.9,53.9,29.85,SE,136,5.0,9.0,75,0.00,,,0.03,VWS V14.01,2013-04-27 05:46:00,
2013-04-27 07:50:00,61.7,54.1,29.86,SSE,152,4.0,9.0,76,0.00,,,0.03,VWS V14.01,2013-04-27 05:50:00,
2013-04-27 07:51:00,61.7,54.1,29.85,SSE,152,1.0,9.0,76,0.00,,,0.03,VWS V14.01,2013-04-27 05:51:00,
2013-04-27 07:56:00,61.5,54.2,29.85,SE,141,4.0,9.0,77,0.00,,,0.03,VWS V14.01,2013-04-27 05:56:00,
2013-04-27 08:00:00,61.2,54.3,29.86,SSE,148,4.0,9.0,78,0.00,,,0.03,VWS V14.01,2013-04-27 06:00:00,
2013-04-27 08:01:00,61.2,53.9,29.86,SSE,150,5.0,9.0,77,0.00,,,0.03,VWS V14.01,2013-04-27 06:01:00,
2013-04-27 08:06:00,60.9,54.3,29.85,SE,134,6.0,7.0,79,0.00,,,0.03,VWS V14.01,2013-04-27 06:06:00,
2013-04-27 08:10:00,60.7,54.2,29.86,SE,126,0.0,7.0,79,0.01,,,0.04,VWS V14.01,2013-04-27 06:10:00,
2013-04-27 08:11:00,60.7,54.2,29.86,SE,126,1.0,7.0,79,0.01,,,0.04,VWS V14.01,2013-04-27 06:11:00,
2013-04-27 08:16:00,60.7,54.5,29.86,SE,126,1.0,3.0,80,0.01,,,0.04,VWS V14.01,2013-04-27 06:16:00,
2013-04-27 08:20:00,60.6,54.8,29.86,SE,126,0.0,4.0,81,0.01,,,0.04,VWS V14.01,2013-04-27 06:20:00,
2013-04-27 08:21:00,60.6,54.8,29.86,SE,126,1.0,4.0,81,0.01,,,0.04,VWS V14.01,2013-04-27 06:21:00,
2013-04-27 08:26:00,60.5,54.7,29.86,SE,139,1.0,4.0,81,0.01,,,0.04,VWS V14.01,2013-04-27 06:26:00,
2013-04-27 08:30:00,60.5,55.0,29.86,SE,139,3.0,5.0,82,0.01,,,0.04,VWS V14.01,2013-04-27 06:30:00,
2013-04-27 08:31:00,60.6,55.1,29.85,SE,139,5.0,5.0,82,0.01,,,0.04,VWS V14.01,2013-04-27 06:31:00,
2013-04-27 08:36:00,60.6,55.1,29.86,SE,139,5.0,6.0,82,0.01,,,0.04,VWS V14.01,2013-04-27 06:36:00,
2013-04-27 08:40:00,60.7,55.2,29.86,SE,131,5.0,7.0,82,0.01,,,0.04,VWS V14.01,2013-04-27 06:40:00,
2013-04-27 08:41:00,60.7,55.2,29.86,SE,131,2.0,7.0,82,0.01,,,0.04,VWS V14.01,2013-04-27 06:41:00,
2013-04-27 08:46:00,60.6,54.8,29.85,SSE,151,4.0,9.0,81,0.01,,,0.04,VWS V14.01,2013-04-27 06:46:00,
2013-04-27 08:50:00,60.7,54.5,29.85,SSE,157,5.0,12.0,80,0.01,,,0.04,VWS V14.01,2013-04-27 06:50:00,
2013-04-27 08:51:00,60.7,54.5,29.85,SSE,159,5.0,12.0,80,0.01,,,0.04,VWS V14.01,2013-04-27 06:51:00,
2013-04-27 08:56:00,60.8,54.3,29.86,South,188,9.0,11.0,79,0.01,,,0.04,VWS V14.01,2013-04-27 06:56:00,
2013-04-27 09:00:00,61.3,54.7,29.86,SSW,200,7.0,14.0,79,0.01,,,0.04,VWS V14.01,2013-04-27 07:00:00,
2013-04-27 09:01:00,61.2,54.6,29.86,South,182,5.0,14.0,79,0.01,,,0.04,VWS V14.01,2013-04-27 07:01:00,
2013-04-27 09:07:00,61.4,54.5,29.86,South,173,5.0,12.0,78,0.01,,,0.04,VWS V14.01,2013-04-27 07:07:00,
2013-04-27 09:10:00,61.5,54.9,29.86,SSW,202,6.0,13.0,79,0.01,,,0.04,VWS V14.01,2013-04-27 07:10:00,
2013-04-27 09:12:00,61.5,54.9,29.86,South,175,11.0,13.0,79,0.01,,,0.04,VWS V14.01,2013-04-27 07:12:00,
2013-04-27 09:17:00,61.5,54.9,29.86,SE,130,9.0,12.0,79,0.00,,,0.04,VWS V14.01,2013-04-27 07:17:00,
2013-04-27 09:20:00,61.3,54.7,29.86,SE,138,9.0,14.0,79,0.00,,,0.04,VWS V14.01,2013-04-27 07:20:00,
2013-04-27 09:22:00,61.3,54.7,29.86,SSE,153,8.0,14.0,79,0.00,,,0.04,VWS V14.01,2013-04-27 07:22:00,
2013-04-27 09:27:00,61.2,55.0,29.86,SE,135,20.0,20.0,80,0.00,,,0.04,VWS V14.01,2013-04-27 07:27:00,
2013-04-27 09:30:00,60.8,54.6,29.86,SE,124,11.0,20.0,80,0.00,,,0.04,VWS V14.01,2013-04-27 07:30:00,
2013-04-27 09:32:00,60.8,54.6,29.86,SE,124,11.0,20.0,80,0.00,,,0.04,VWS V14.01,2013-04-27 07:32:00,
2013-04-27 09:37:00,60.2,54.4,29.86,SSE,158,14.0,24.0,81,0.00,,,0.04,VWS V14.01,2013-04-27 07:37:00,
2013-04-27 09:40:00,59.9,54.7,29.87,SE,130,17.0,27.0,83,0.00,,,0.04,VWS V14.01,2013-04-27 07:40:00,
2013-04-27 09:42:00,59.8,54.6,29.87,SE,131,12.0,23.0,83,0.00,,,0.04,VWS V14.01,2013-04-27 07:42:00,
2013-04-27 09:47:00,59.5,54.7,29.87,SE,129,13.0,23.0,84,0.00,,,0.04,VWS V14.01,2013-04-27 07:47:00,
2013-04-27 09:50:00,59.4,54.9,29.87,SE,135,14.0,23.0,85,0.00,,,0.04,VWS V14.01,2013-04-27 07:50:00,
2013-04-27 09:52:00,59.4,54.9,29.87,SE,136,14.0,14.0,85,0.00,,,0.04,VWS V14.01,2013-04-27 07:52:00,
2013-04-27 09:57:00,59.1,54.9,29.87,SSE,151,15.0,21.0,86,0.00,,,0.04,VWS V14.01,2013-04-27 07:57:00,
2013-04-27 10:00:00,58.8,54.9,29.86,SE,145,19.0,21.0,87,0.01,,,0.05,VWS V14.01,2013-04-27 08:00:00,
2013-04-27 10:02:00,58.8,55.0,29.87,ESE,111,12.0,19.0,87,0.01,,,0.05,VWS V14.01,2013-04-27 08:02:00,
2013-04-27 10:07:00,58.6,54.8,29.86,ESE,102,13.0,19.0,87,0.02,,,0.06,VWS V14.01,2013-04-27 08:07:00,
2013-04-27 10:10:00,58.4,54.9,29.87,SE,137,6.0,19.0,88,0.02,,,0.06,VWS V14.01,2013-04-27 08:10:00,
2013-04-27 10:12:00,58.4,54.9,29.87,SE,124,9.0,9.0,88,0.02,,,0.06,VWS V14.01,2013-04-27 08:12:00,
2013-04-27 10:17:00,58.3,54.8,29.87,SSE,151,9.0,13.0,88,0.03,,,0.07,VWS V14.01,2013-04-27 08:17:00,
2013-04-27 10:20:00,58.2,55.0,29.87,ESE,104,7.0,16.0,89,0.04,,,0.08,VWS V14.01,2013-04-27 08:20:00,
2013-04-27 10:22:00,58.2,55.0,29.87,ESE,115,9.0,9.0,89,0.04,,,0.08,VWS V14.01,2013-04-27 08:22:00,
2013-04-27 10:27:00,58.1,54.9,29.87,SSE,150,7.0,13.0,89,0.05,,,0.09,VWS V14.01,2013-04-27 08:27:00,
2013-04-27 10:30:00,58.1,54.9,29.87,SE,146,8.0,14.0,89,0.05,,,0.09,VWS V14.01,2013-04-27 08:30:00,
2013-04-27 10:32:00,58.1,54.9,29.87,SE,146,8.0,14.0,89,0.05,,,0.09,VWS V14.01,2013-04-27 08:32:00,
2013-04-27 10:37:00,58.2,55.3,29.87,East,98,11.0,14.0,90,0.06,,,0.10,VWS V14.01,2013-04-27 08:37:00,
2013-04-27 10:40:00,58.3,55.4,29.88,SE,128,11.0,14.0,90,0.07,,,0.11,VWS V14.01,2013-04-27 08:40:00,
2013-04-27 10:42:00,58.3,55.4,29.88,SE,133,12.0,16.0,90,0.07,,,0.11,VWS V14.01,2013-04-27 08:42:00,
2013-04-27 10:47:00,58.5,55.9,29.88,SE,136,10.0,16.0,91,0.08,,,0.12,VWS V14.01,2013-04-27 08:47:00,
2013-04-27 10:50:00,58.7,56.1,29.88,SE,138,10.0,16.0,91,0.09,,,0.13,VWS V14.01,2013-04-27 08:50:00,
2013-04-27 10:52:00,58.7,56.1,29.88,ESE,117,11.0,12.0,91,0.09,,,0.13,VWS V14.01,2013-04-27 08:52:00,
2013-04-27 10:57:00,58.6,56.0,29.88,SE,137,9.0,18.0,91,0.10,,,0.14,VWS V14.01,2013-04-27 08:57:00,
2013-04-27 11:00:00,58.6,56.0,29.88,SE,132,13.0,20.0,91,0.11,,,0.15,VWS V14.01,2013-04-27 09:00:00,
2013-04-27 11:02:00,58.6,56.0,29.88,ESE,123,14.0,14.0,91,0.10,,,0.15,VWS V14.01,2013-04-27 09:02:00,
2013-04-27 11:07:00,58.5,55.9,29.88,SE,138,11.0,20.0,91,0.12,,,0.17,VWS V14.01,2013-04-27 09:07:00,
2013-04-27 11:10:00,58.6,56.0,29.88,ESE,123,9.0,20.0,91,0.13,,,0.18,VWS V14.01,2013-04-27 09:10:00,
2013-04-27 11:12:00,58.6,56.0,29.88,SE,143,18.0,18.0,91,0.12,,,0.18,VWS V14.01,2013-04-27 09:12:00,
2013-04-27 11:17:00,58.6,56.0,29.88,ESE,109,7.0,18.0,91,0.13,,,0.19,VWS V14.01,2013-04-27 09:17:00,
2013-04-27 11:20:00,58.6,56.0,29.88,East,96,16.0,18.0,91,0.14,,,0.20,VWS V14.01,2013-04-27 09:20:00,
2013-04-27 11:22:00,58.6,56.0,29.88,ESE,110,11.0,16.0,91,0.12,,,0.20,VWS V14.01,2013-04-27 09:22:00,
2013-04-27 11:27:00,58.6,56.0,29.88,ESE,109,11.0,17.0,91,0.13,,,0.21,VWS V14.01,2013-04-27 09:27:00,
2013-04-27 11:30:00,58.5,55.9,29.87,ESE,117,17.0,18.0,91,0.13,,,0.21,VWS V14.01,2013-04-27 09:30:00,
2013-04-27 11:32:00,58.5,55.9,29.87,ESE,117,17.0,18.0,91,0.13,,,0.21,VWS V14.01,2013-04-27 09:32:00,
2013-04-27 11:37:00,58.6,56.0,29.87,ESE,105,14.0,17.0,91,0.13,,,0.22,VWS V14.01,2013-04-27 09:37:00,
2013-04-27 11:40:00,58.7,56.1,29.87,East,99,13.0,17.0,91,0.13,,,0.22,VWS V14.01,2013-04-27 09:40:00,
2013-04-27 11:42:00,58.7,56.1,29.87,ESE,122,11.0,13.0,91,0.11,,,0.22,VWS V14.01,2013-04-27 09:42:00,
2013-04-27 11:47:00,58.7,56.1,29.87,ESE,120,10.0,14.0,91,0.11,,,0.22,VWS V14.01,2013-04-27 09:47:00,
2013-04-27 11:50:00,58.7,56.1,29.87,East,90,10.0,14.0,91,0.11,,,0.22,VWS V14.01,2013-04-27 09:50:00,
2013-04-27 11:52:00,58.7,56.1,29.87,ESE,109,9.0,10.0,91,0.09,,,0.22,VWS V14.01,2013-04-27 09:52:00,
2013-04-27 11:57:00,58.8,56.5,29.87,East,96,3.0,15.0,92,0.10,,,0.23,VWS V14.01,2013-04-27 09:57:00,
2013-04-27 12:00:00,58.8,56.5,29.86,SE,131,3.0,15.0,92,0.10,,,0.23,VWS V14.01,2013-04-27 10:00:00,
2013-04-27 12:10:00,58.9,56.6,29.86,ESE,108,7.0,11.0,92,0.08,,,0.23,VWS V14.01,2013-04-27 10:10:00,
2013-04-27 12:12:00,58.9,56.6,29.86,East,88,9.0,11.0,92,0.05,,,0.23,VWS V14.01,2013-04-27 10:12:00,
2013-04-27 12:17:00,58.9,56.6,29.85,ESE,117,11.0,13.0,92,0.05,,,0.23,VWS V14.01,2013-04-27 10:17:00,
2013-04-27 12:20:00,58.8,56.5,29.85,ESE,112,11.0,15.0,92,0.05,,,0.23,VWS V14.01,2013-04-27 10:20:00,
2013-04-27 12:22:00,58.8,56.5,29.85,East,94,8.0,11.0,92,0.03,,,0.23,VWS V14.01,2013-04-27 10:22:00,
2013-04-27 12:27:00,58.8,56.5,29.85,East,85,3.0,13.0,92,0.04,,,0.24,VWS V14.01,2013-04-27 10:27:00,
2013-04-27 12:30:00,59.0,56.7,29.85,ESE,118,7.0,13.0,92,0.04,,,0.24,VWS V14.01,2013-04-27 10:30:00,
2013-04-27 12:32:00,59.0,56.7,29.85,ESE,120,9.0,10.0,92,0.03,,,0.24,VWS V14.01,2013-04-27 10:32:00,
2013-04-27 12:37:00,58.8,56.5,29.85,East,100,11.0,11.0,92,0.03,,,0.24,VWS V14.01,2013-04-27 10:37:00,
2013-04-27 12:40:00,59.0,56.7,29.85,ESE,103,10.0,11.0,92,0.03,,,0.24,VWS V14.01,2013-04-27 10:40:00,
2013-04-27 12:42:00,59.0,56.7,29.85,ESE,117,9.0,10.0,92,0.02,,,0.24,VWS V14.01,2013-04-27 10:42:00,
2013-04-27 12:47:00,59.2,56.6,29.84,SE,128,10.0,11.0,91,0.02,,,0.24,VWS V14.01,2013-04-27 10:47:00,
2013-04-27 12:50:00,59.3,56.7,29.84,SE,128,10.0,12.0,91,0.02,,,0.24,VWS V14.01,2013-04-27 10:50:00,
2013-04-27 12:52:00,59.2,56.6,29.84,SE,128,8.0,10.0,91,0.02,,,0.24,VWS V14.01,2013-04-27 10:52:00,
2013-04-27 12:57:00,59.5,56.9,29.84,ESE,105,3.0,12.0,91,0.02,,,0.24,VWS V14.01,2013-04-27 10:57:00,
2013-04-27 13:00:00,59.4,56.8,29.84,East,98,10.0,14.0,91,0.02,,,0.24,VWS V14.01,2013-04-27 11:00:00,
2013-04-27 13:02:00,59.4,56.8,29.84,ESE,105,9.0,12.0,91,0.01,,,0.24,VWS V14.01,2013-04-27 11:02:00,
2013-04-27 13:07:00,59.7,57.1,29.84,SSE,150,6.0,12.0,91,0.01,,,0.24,VWS V14.01,2013-04-27 11:07:00,
2013-04-27 13:10:00,59.8,56.9,29.84,ESE,107,4.0,12.0,90,0.02,,,0.25,VWS V14.01,2013-04-27 11:10:00,
2013-04-27 13:13:00,59.7,56.8,29.84,SE,134,11.0,11.0,90,0.02,,,0.25,VWS V14.01,2013-04-27 11:13:00,
2013-04-27 13:18:00,59.8,56.9,29.84,SE,134,7.0,11.0,90,0.02,,,0.25,VWS V14.01,2013-04-27 11:18:00,
2013-04-27 13:20:00,60.1,56.8,29.84,SE,130,8.0,11.0,89,0.02,,,0.25,VWS V14.01,2013-04-27 11:20:00,
2013-04-27 13:23:00,60.1,56.8,29.84,SE,130,2.0,8.0,89,0.02,,,0.25,VWS V14.01,2013-04-27 11:23:00,
2013-04-27 13:28:00,60.1,56.8,29.84,SE,129,11.0,12.0,89,0.02,,,0.25,VWS V14.01,2013-04-27 11:28:00,
2013-04-27 13:30:00,59.8,56.2,29.84,ESE,123,9.0,13.0,88,0.02,,,0.25,VWS V14.01,2013-04-27 11:30:00,
2013-04-27 13:33:00,59.8,56.2,29.84,SSE,147,7.0,9.0,88,0.01,,,0.25,VWS V14.01,2013-04-27 11:33:00,
2013-04-27 13:38:00,59.8,56.2,29.84,East,94,13.0,15.0,88,0.01,,,0.25,VWS V14.01,2013-04-27 11:38:00,
2013-04-27 13:40:00,59.7,56.2,29.84,SSE,150,7.0,15.0,88,0.01,,,0.25,VWS V14.01,2013-04-27 11:40:00,
2013-04-27 13:43:00,59.6,56.0,29.84,SE,128,11.0,11.0,88,0.01,,,0.25,VWS V14.01,2013-04-27 11:43:00,
2013-04-27 13:48:00,59.7,56.2,29.84,ESE,123,8.0,11.0,88,0.01,,,0.25,VWS V14.01,2013-04-27 11:48:00,
2013-04-27 13:50:00,59.7,56.2,29.84,ESE,118,7.0,11.0,88,0.01,,,0.25,VWS V14.01,2013-04-27 11:50:00,
2013-04-27 13:53:00,59.7,56.2,29.84,SE,141,5.0,7.0,88,0.01,,,0.25,VWS V14.01,2013-04-27 11:53:00,
2013-04-27 13:58:00,59.6,56.0,29.85,SE,135,4.0,9.0,88,0.01,,,0.25,VWS V14.01,2013-04-27 11:58:00,
2013-04-27 14:00:00,59.6,56.0,29.85,SE,140,7.0,9.0,88,0.01,,,0.25,VWS V14.01,2013-04-27 12:00:00,
2013-04-27 14:03:00,59.7,56.2,29.85,SE,130,2.0,7.0,88,0.01,,,0.25,VWS V14.01,2013-04-27 12:03:00,
2013-04-27 14:08:00,59.8,56.2,29.84,SE,142,7.0,9.0,88,0.01,,,0.25,VWS V14.01,2013-04-27 12:08:00,
2013-04-27 14:10:00,59.9,56.3,29.84,ESE,111,3.0,10.0,88,0.01,,,0.25,VWS V14.01,2013-04-27 12:10:00,
2013-04-27 14:13:00,60.0,56.4,29.84,ESE,119,7.0,7.0,88,0.00,,,0.25,VWS V14.01,2013-04-27 12:13:00,
2013-04-27 14:18:00,60.2,56.3,29.84,SSE,155,7.0,11.0,87,0.00,,,0.25,VWS V14.01,2013-04-27 12:18:00,
2013-04-27 14:20:00,60.3,56.4,29.84,SE,145,7.0,11.0,87,0.00,,,0.25,VWS V14.01,2013-04-27 12:20:00,
2013-04-27 14:23:00,60.5,56.6,29.84,ESE,121,4.0,7.0,87,0.00,,,0.25,VWS V14.01,2013-04-27 12:23:00,
2013-04-27 14:28:00,60.4,56.5,29.84,SE,126,6.0,8.0,87,0.00,,,0.25,VWS V14.01,2013-04-27 12:28:00,
2013-04-27 14:30:00,60.4,56.5,29.84,SE,130,6.0,11.0,87,0.00,,,0.25,VWS V14.01,2013-04-27 12:30:00,
2013-04-27 14:33:00,60.5,56.6,29.84,SSE,150,8.0,10.0,87,0.00,,,0.25,VWS V14.01,2013-04-27 12:33:00,
2013-04-27 14:38:00,60.5,56.6,29.84,SSE,149,5.0,18.0,87,0.00,,,0.25,VWS V14.01,2013-04-27 12:38:00,
2013-04-27 14:40:00,60.6,56.7,29.84,SSE,157,6.0,18.0,87,0.00,,,0.25,VWS V14.01,2013-04-27 12:40:00,
2013-04-27 14:43:00,60.5,56.6,29.84,SE,142,9.0,9.0,87,0.00,,,0.25,VWS V14.01,2013-04-27 12:43:00,
2013-04-27 14:48:00,60.6,56.7,29.83,SE,140,6.0,13.0,87,0.00,,,0.25,VWS V14.01,2013-04-27 12:48:00,
2013-04-27 14:50:00,60.5,56.6,29.83,SE,146,11.0,13.0,87,0.00,,,0.25,VWS V14.01,2013-04-27 12:50:00,
2013-04-27 14:53:00,60.5,56.6,29.83,SSE,153,5.0,12.0,87,0.00,,,0.25,VWS V14.01,2013-04-27 12:53:00,
2013-04-27 14:58:00,60.6,56.7,29.83,SE,126,8.0,14.0,87,0.00,,,0.25,VWS V14.01,2013-04-27 12:58:00,
2013-04-27 15:00:00,60.5,56.6,29.83,SSE,147,5.0,18.0,87,0.00,,,0.25,VWS V14.01,2013-04-27 13:00:00,
2013-04-27 15:03:00,60.6,56.7,29.83,SE,141,7.0,8.0,87,0.00,,,0.25,VWS V14.01,2013-04-27 13:03:00,
2013-04-27 15:08:00,60.5,56.6,29.83,SE,134,16.0,17.0,87,0.00,,,0.25,VWS V14.01,2013-04-27 13:08:00,
2013-04-27 15:10:00,60.5,56.6,29.83,SSE,151,9.0,17.0,87,0.00,,,0.25,VWS V14.01,2013-04-27 13:10:00,
2013-04-27 15:13:00,60.5,56.6,29.83,South,170,11.0,12.0,87,0.00,,,0.25,VWS V14.01,2013-04-27 13:13:00,
2013-04-27 15:18:00,60.8,56.9,29.83,SSE,163,7.0,15.0,87,0.00,,,0.25,VWS V14.01,2013-04-27 13:18:00,
2013-04-27 15:20:00,60.8,56.9,29.83,SSE,150,6.0,15.0,87,0.00,,,0.25,VWS V14.01,2013-04-27 13:20:00,
2013-04-27 15:23:00,60.9,57.0,29.83,SE,143,11.0,11.0,87,0.00,,,0.25,VWS V14.01,2013-04-27 13:23:00,
2013-04-27 15:28:00,60.9,57.0,29.83,ESE,122,4.0,15.0,87,0.00,,,0.25,VWS V14.01,2013-04-27 13:28:00,
2013-04-27 15:30:00,60.4,56.2,29.83,ESE,117,10.0,21.0,86,0.00,,,0.25,VWS V14.01,2013-04-27 13:30:00,
2013-04-27 15:33:00,60.4,56.5,29.83,SSE,147,7.0,17.0,87,0.00,,,0.25,VWS V14.01,2013-04-27 13:33:00,
2013-04-27 15:38:00,60.1,56.2,29.83,SE,126,10.0,20.0,87,0.00,,,0.25,VWS V14.01,2013-04-27 13:38:00,
2013-04-27 15:40:00,59.9,56.3,29.83,SE,126,12.0,20.0,88,0.00,,,0.25,VWS V14.01,2013-04-27 13:40:00,
2013-04-27 15:43:00,59.9,56.3,29.83,SE,137,13.0,17.0,88,0.00,,,0.25,VWS V14.01,2013-04-27 13:43:00,
2013-04-27 15:48:00,60.0,56.4,29.83,SSE,155,15.0,18.0,88,0.00,,,0.25,VWS V14.01,2013-04-27 13:48:00,
2013-04-27 15:50:00,60.0,56.4,29.83,ESE,108,9.0,18.0,88,0.00,,,0.25,VWS V14.01,2013-04-27 13:50:00,
2013-04-27 15:53:00,59.9,56.3,29.83,SE,128,16.0,19.0,88,0.00,,,0.25,VWS V14.01,2013-04-27 13:53:00,
2013-04-27 15:58:00,60.0,56.8,29.83,SE,132,12.0,22.0,89,0.00,,,0.25,VWS V14.01,2013-04-27 13:58:00,
2013-04-27 16:00:00,60.2,57.0,29.83,SE,126,10.0,23.0,89,0.00,,,0.25,VWS V14.01,2013-04-27 14:00:00,
2013-04-27 16:03:00,60.5,57.2,29.83,SSE,153,6.0,21.0,89,0.00,,,0.25,VWS V14.01,2013-04-27 14:03:00,
2013-04-27 16:08:00,60.9,57.3,29.83,SE,142,18.0,23.0,88,0.00,,,0.25,VWS V14.01,2013-04-27 14:08:00,
2013-04-27 16:10:00,61.0,57.1,29.83,SE,137,18.0,23.0,87,0.00,,,0.25,VWS V14.01,2013-04-27 14:10:00,
2013-04-27 16:13:00,61.1,57.5,29.83,ESE,119,7.0,18.0,88,0.00,,,0.25,VWS V14.01,2013-04-27 14:13:00,
2013-04-27 16:19:00,61.1,57.2,29.83,ESE,113,13.0,21.0,87,0.00,,,0.25,VWS V14.01,2013-04-27 14:19:00,
2013-04-27 16:20:00,61.0,57.1,29.83,ESE,123,2.0,22.0,87,0.00,,,0.25,VWS V14.01,2013-04-27 14:20:00,
2013-04-27 16:24:00,61.1,57.2,29.83,SSE,150,7.0,14.0,87,0.00,,,0.25,VWS V14.01,2013-04-27 14:24:00,
2013-04-27 16:29:00,61.0,57.1,29.83,ESE,109,7.0,22.0,87,0.00,,,0.25,VWS V14.01,2013-04-27 14:29:00,
2013-04-27 16:30:00,61.3,57.4,29.83,SE,136,9.0,22.0,87,0.00,,,0.25,VWS V14.01,2013-04-27 14:30:00,
2013-04-27 16:34:00,61.4,57.8,29.83,SE,138,13.0,13.0,88,0.00,,,0.25,VWS V14.01,2013-04-27 14:34:00,
2013-04-27 16:39:00,61.7,57.8,29.82,ESE,121,8.0,19.0,87,0.00,,,0.25,VWS V14.01,2013-04-27 14:39:00,
2013-04-27 16:40:00,61.9,57.7,29.82,ESE,116,10.0,19.0,86,0.00,,,0.25,VWS V14.01,2013-04-27 14:40:00,
2013-04-27 16:44:00,62.0,58.1,29.82,SE,130,14.0,14.0,87,0.00,,,0.25,VWS V14.01,2013-04-27 14:44:00,
2013-04-27 16:49:00,61.9,57.7,29.83,ESE,121,11.0,14.0,86,0.00,,,0.25,VWS V14.01,2013-04-27 14:49:00,
2013-04-27 16:50:00,61.7,57.2,29.83,SE,124,9.0,14.0,85,0.00,,,0.25,VWS V14.01,2013-04-27 14:50:00,
2013-04-27 16:54:00,61.6,57.4,29.83,ESE,109,8.0,15.0,86,0.00,,,0.25,VWS V14.01,2013-04-27 14:54:00,
2013-04-27 16:59:00,61.6,57.4,29.82,SE,130,4.0,16.0,86,0.00,,,0.25,VWS V14.01,2013-04-27 14:59:00,
2013-04-27 17:00:00,61.8,57.6,29.82,SE,134,11.0,16.0,86,0.00,,,0.25,VWS V14.01,2013-04-27 15:00:00,
2013-04-27 17:04:00,61.9,57.3,29.82,East,95,10.0,11.0,85,0.00,,,0.25,VWS V14.01,2013-04-27 15:04:00,
2013-04-27 17:09:00,61.9,57.3,29.82,SSE,148,11.0,15.0,85,0.00,,,0.25,VWS V14.01,2013-04-27 15:09:00,
2013-04-27 17:10:00,61.9,57.3,29.82,ESE,120,3.0,15.0,85,0.00,,,0.25,VWS V14.01,2013-04-27 15:10:00,
2013-04-27 17:14:00,62.0,57.5,29.82,ESE,107,3.0,9.0,85,0.00,,,0.25,VWS V14.01,2013-04-27 15:14:00,
2013-04-27 17:19:00,62.2,57.6,29.82,ESE,103,4.0,11.0,85,0.00,,,0.25,VWS V14.01,2013-04-27 15:19:00,
2013-04-27 17:20:00,62.2,57.6,29.82,SE,127,11.0,15.0,85,0.00,,,0.25,VWS V14.01,2013-04-27 15:20:00,
2013-04-27 17:24:00,62.2,57.6,29.82,ESE,119,12.0,17.0,85,0.00,,,0.25,VWS V14.01,2013-04-27 15:24:00,
2013-04-27 17:29:00,62.4,57.5,29.82,ESE,117,4.0,17.0,84,0.00,,,0.25,VWS V14.01,2013-04-27 15:29:00,
2013-04-27 17:30:00,62.4,57.5,29.82,SE,129,4.0,17.0,84,0.00,,,0.25,VWS V14.01,2013-04-27 15:30:00,
2013-04-27 17:34:00,62.4,57.5,29.82,East,91,7.0,13.0,84,0.00,,,0.25,VWS V14.01,2013-04-27 15:34:00,
2013-04-27 17:39:00,62.5,57.3,29.82,East,100,7.0,13.0,83,0.00,,,0.25,VWS V14.01,2013-04-27 15:39:00,
2013-04-27 17:40:00,62.6,57.0,29.82,ESE,120,12.0,13.0,82,0.00,,,0.25,VWS V14.01,2013-04-27 15:40:00,
2013-04-27 17:44:00,62.7,57.1,29.82,ESE,122,7.0,12.0,82,0.00,,,0.25,VWS V14.01,2013-04-27 15:44:00,
2013-04-27 17:49:00,63.0,57.1,29.82,ESE,109,11.0,12.0,81,0.00,,,0.25,VWS V14.01,2013-04-27 15:49:00,
2013-04-27 17:50:00,63.2,57.3,29.82,ESE,106,4.0,12.0,81,0.00,,,0.25,VWS V14.01,2013-04-27 15:50:00,
2013-04-27 17:54:00,63.2,56.9,29.82,SE,138,11.0,11.0,80,0.00,,,0.25,VWS V14.01,2013-04-27 15:54:00,
2013-04-27 17:59:00,63.3,56.3,29.82,ESE,105,5.0,14.0,78,0.00,,,0.25,VWS V14.01,2013-04-27 15:59:00,
2013-04-27 18:00:00,63.5,56.2,29.81,SE,146,8.0,14.0,77,0.00,,,0.25,VWS V14.01,2013-04-27 16:00:00,
2013-04-27 18:04:00,63.5,56.2,29.81,SE,139,5.0,12.0,77,0.00,,,0.25,VWS V14.01,2013-04-27 16:04:00,
2013-04-27 18:09:00,63.5,55.4,29.81,SE,131,2.0,12.0,75,0.00,,,0.25,VWS V14.01,2013-04-27 16:09:00,
2013-04-27 18:10:00,63.6,55.5,29.81,SE,134,5.0,12.0,75,0.00,,,0.25,VWS V14.01,2013-04-27 16:10:00,
2013-04-27 18:14:00,63.6,55.5,29.81,ESE,120,11.0,11.0,75,0.00,,,0.25,VWS V14.01,2013-04-27 16:14:00,
2013-04-27 18:19:00,63.6,55.2,29.81,ESE,119,9.0,12.0,74,0.00,,,0.25,VWS V14.01,2013-04-27 16:19:00,
2013-04-27 18:20:00,63.7,54.9,29.81,SE,146,12.0,12.0,73,0.00,,,0.25,VWS V14.01,2013-04-27 16:20:00,
2013-04-27 18:24:00,63.7,54.5,29.81,SE,144,5.0,12.0,72,0.00,,,0.25,VWS V14.01,2013-04-27 16:24:00,
2013-04-27 18:29:00,63.7,54.5,29.81,SE,132,5.0,12.0,72,0.00,,,0.25,VWS V14.01,2013-04-27 16:29:00,
2013-04-27 18:30:00,63.8,54.6,29.81,SE,141,5.0,12.0,72,0.00,,,0.25,VWS V14.01,2013-04-27 16:30:00,
2013-04-27 18:34:00,63.7,54.5,29.82,SE,141,5.0,5.0,72,0.00,,,0.25,VWS V14.01,2013-04-27 16:34:00,
2013-04-27 18:39:00,63.8,54.6,29.81,SE,141,5.0,8.0,72,0.00,,,0.25,VWS V14.01,2013-04-27 16:39:00,
2013-04-27 18:40:00,63.8,54.6,29.81,SE,139,7.0,8.0,72,0.00,,,0.25,VWS V14.01,2013-04-27 16:40:00,
2013-04-27 18:44:00,63.8,54.6,29.81,SE,127,5.0,10.0,72,0.00,,,0.25,VWS V14.01,2013-04-27 16:44:00,
2013-04-27 18:49:00,63.8,54.2,29.81,East,94,5.0,10.0,71,0.00,,,0.25,VWS V14.01,2013-04-27 16:49:00,
2013-04-27 18:50:00,63.9,54.3,29.81,ESE,104,4.0,10.0,71,0.00,,,0.25,VWS V14.01,2013-04-27 16:50:00,
2013-04-27 18:54:00,63.9,53.9,29.81,SE,131,2.0,8.0,70,0.00,,,0.25,VWS V14.01,2013-04-27 16:54:00,
2013-04-27 18:59:00,64.0,54.0,29.81,SE,138,6.0,8.0,70,0.00,,,0.25,VWS V14.01,2013-04-27 16:59:00,
2013-04-27 19:00:00,63.9,53.9,29.81,SE,136,3.0,8.0,70,0.00,,,0.25,VWS V14.01,2013-04-27 17:00:00,
2013-04-27 19:04:00,64.0,54.0,29.81,SE,136,4.0,6.0,70,0.00,,,0.25,VWS V14.01,2013-04-27 17:04:00,
2013-04-27 19:09:00,64.0,54.0,29.81,ESE,115,3.0,8.0,70,0.00,,,0.25,VWS V14.01,2013-04-27 17:09:00,
2013-04-27 19:10:00,64.1,53.7,29.81,SE,126,2.0,8.0,69,0.00,,,0.25,VWS V14.01,2013-04-27 17:10:00,
2013-04-27 19:14:00,64.1,53.7,29.81,ESE,115,4.0,5.0,69,0.00,,,0.25,VWS V14.01,2013-04-27 17:14:00,
2013-04-27 19:19:00,64.1,53.7,29.80,SE,124,4.0,9.0,69,0.00,,,0.25,VWS V14.01,2013-04-27 17:19:00,
2013-04-27 19:20:00,64.2,53.4,29.80,SE,134,6.0,10.0,68,0.00,,,0.25,VWS V14.01,2013-04-27 17:20:00,
2013-04-27 19:24:00,64.3,53.1,29.81,SE,133,9.0,13.0,67,0.00,,,0.25,VWS V14.01,2013-04-27 17:24:00,
2013-04-27 19:29:00,64.4,52.8,29.81,SE,134,5.0,13.0,66,0.00,,,0.25,VWS V14.01,2013-04-27 17:29:00,
2013-04-27 19:30:00,64.4,52.8,29.81,SSE,148,8.0,13.0,66,0.00,,,0.25,VWS V14.01,2013-04-27 17:30:00,
2013-04-27 19:34:00,64.4,52.8,29.81,SE,132,4.0,9.0,66,0.00,,,0.25,VWS V14.01,2013-04-27 17:34:00,
2013-04-27 19:39:00,64.4,52.8,29.81,ESE,117,5.0,9.0,66,0.00,,,0.25,VWS V14.01,2013-04-27 17:39:00,
2013-04-27 19:40:00,64.4,53.2,29.81,SE,139,8.0,9.0,67,0.00,,,0.25,VWS V14.01,2013-04-27 17:40:00,
2013-04-27 19:44:00,64.4,53.2,29.81,SE,136,5.0,9.0,67,0.00,,,0.25,VWS V14.01,2013-04-27 17:44:00,
2013-04-27 19:49:00,64.4,53.2,29.82,SE,132,5.0,9.0,67,0.00,,,0.25,VWS V14.01,2013-04-27 17:49:00,
2013-04-27 19:50:00,64.4,53.2,29.82,SE,125,2.0,10.0,67,0.00,,,0.25,VWS V14.01,2013-04-27 17:50:00,
2013-04-27 19:54:00,64.5,53.3,29.82,SSE,155,4.0,5.0,67,0.00,,,0.25,VWS V14.01,2013-04-27 17:54:00,
2013-04-27 19:59:00,64.5,53.3,29.82,SE,140,3.0,9.0,67,0.00,,,0.25,VWS V14.01,2013-04-27 17:59:00,
2013-04-27 20:00:00,64.5,53.3,29.82,SE,139,3.0,9.0,67,0.00,,,0.25,VWS V14.01,2013-04-27 18:00:00,
2013-04-27 20:04:00,64.5,53.3,29.82,SE,139,0.0,3.0,67,0.00,,,0.25,VWS V14.01,2013-04-27 18:04:00,
2013-04-27 20:09:00,64.4,53.6,29.82,SE,140,1.0,7.0,68,0.00,,,0.25,VWS V14.01,2013-04-27 18:09:00,
2013-04-27 20:10:00,64.4,53.6,29.82,SE,141,0.0,7.0,68,0.00,,,0.25,VWS V14.01,2013-04-27 18:10:00,
2013-04-27 20:14:00,64.4,54.0,29.82,SE,141,0.0,3.0,69,0.00,,,0.25,VWS V14.01,2013-04-27 18:14:00,
2013-04-27 20:19:00,64.3,53.9,29.82,SE,141,2.0,6.0,69,0.00,,,0.25,VWS V14.01,2013-04-27 18:19:00,
2013-04-27 20:20:00,64.3,54.3,29.82,SE,141,0.0,6.0,70,0.00,,,0.25,VWS V14.01,2013-04-27 18:20:00,
2013-04-27 20:24:00,64.3,54.3,29.82,ESE,112,1.0,4.0,70,0.00,,,0.25,VWS V14.01,2013-04-27 18:24:00,
2013-04-27 20:29:00,64.2,54.6,29.82,ESE,120,0.0,4.0,71,0.00,,,0.25,VWS V14.01,2013-04-27 18:29:00,
2013-04-27 20:30:00,64.2,54.6,29.82,South,180,0.0,4.0,71,0.00,,,0.25,VWS V14.01,2013-04-27 18:30:00,
2013-04-27 20:34:00,64.2,55.0,29.82,South,180,0.0,1.0,72,0.00,,,0.25,VWS V14.01,2013-04-27 18:34:00,
2013-04-27 20:39:00,64.1,54.9,29.82,South,178,3.0,7.0,72,0.00,,,0.25,VWS V14.01,2013-04-27 18:39:00,
2013-04-27 20:40:00,64.1,55.3,29.83,SSE,160,0.0,7.0,73,0.00,,,0.25,VWS V14.01,2013-04-27 18:40:00,
2013-04-27 20:44:00,64.1,55.3,29.83,SE,138,4.0,5.0,73,0.00,,,0.25,VWS V14.01,2013-04-27 18:44:00,
2013-04-27 20:49:00,64.1,55.3,29.83,SSE,157,5.0,8.0,73,0.00,,,0.25,VWS V14.01,2013-04-27 18:49:00,
2013-04-27 20:50:00,64.2,55.4,29.83,South,173,6.0,8.0,73,0.00,,,0.25,VWS V14.01,2013-04-27 18:50:00,
2013-04-27 20:54:00,64.3,55.5,29.83,SSE,157,4.0,9.0,73,0.00,,,0.25,VWS V14.01,2013-04-27 18:54:00,
2013-04-27 20:59:00,64.3,55.5,29.83,SSE,167,6.0,9.0,73,0.00,,,0.25,VWS V14.01,2013-04-27 18:59:00,
2013-04-27 21:00:00,64.3,55.5,29.83,SE,142,5.0,9.0,73,0.00,,,0.25,VWS V14.01,2013-04-27 19:00:00,
2013-04-27 21:05:00,64.3,55.5,29.83,SSE,161,8.0,8.0,73,0.00,,,0.25,VWS V14.01,2013-04-27 19:05:00,
2013-04-27 21:10:00,64.4,55.6,29.83,SSE,159,4.0,8.0,73,0.00,,,0.25,VWS V14.01,2013-04-27 19:10:00,
2013-04-27 21:15:00,64.3,55.5,29.83,SSE,162,6.0,8.0,73,0.00,,,0.25,VWS V14.01,2013-04-27 19:15:00,
2013-04-27 21:20:00,64.3,55.5,29.83,SSE,157,3.0,8.0,73,0.00,,,0.25,VWS V14.01,2013-04-27 19:20:00,
2013-04-27 21:25:00,64.3,55.8,29.83,SSE,158,1.0,7.0,74,0.00,,,0.25,VWS V14.01,2013-04-27 19:25:00,
2013-04-27 21:30:00,64.3,56.2,29.83,SSE,159,4.0,8.0,75,0.00,,,0.25,VWS V14.01,2013-04-27 19:30:00,
2013-04-27 21:35:00,64.2,56.1,29.83,South,186,4.0,6.0,75,0.00,,,0.25,VWS V14.01,2013-04-27 19:35:00,
2013-04-27 21:40:00,64.2,56.1,29.84,South,180,0.0,6.0,75,0.00,,,0.25,VWS V14.01,2013-04-27 19:40:00,
2013-04-27 21:45:00,64.2,56.5,29.84,South,169,2.0,8.0,76,0.00,,,0.25,VWS V14.01,2013-04-27 19:45:00,
2013-04-27 21:50:00,64.2,56.5,29.84,SSE,156,5.0,9.0,76,0.00,,,0.25,VWS V14.01,2013-04-27 19:50:00,
2013-04-27 21:55:00,64.2,56.5,29.84,South,174,4.0,10.0,76,0.00,,,0.25,VWS V14.01,2013-04-27 19:55:00,
2013-04-27 22:00:00,64.3,56.6,29.84,South,184,5.0,11.0,76,0.00,,,0.25,VWS V14.01,2013-04-27 20:00:00,
2013-04-27 22:05:00,64.3,56.2,29.84,SSW,202,4.0,10.0,75,0.00,,,0.25,VWS V14.01,2013-04-27 20:05:00,
2013-04-27 22:10:00,64.4,55.9,29.85,South,171,6.0,10.0,74,0.00,,,0.25,VWS V14.01,2013-04-27 20:10:00,
2013-04-27 22:15:00,64.5,56.0,29.85,South,186,7.0,12.0,74,0.00,,,0.25,VWS V14.01,2013-04-27 20:15:00,
2013-04-27 22:20:00,64.5,56.0,29.85,South,180,7.0,12.0,74,0.00,,,0.25,VWS V14.01,2013-04-27 20:20:00,
2013-04-27 22:25:00,64.5,56.4,29.85,SSW,192,6.0,10.0,75,0.00,,,0.25,VWS V14.01,2013-04-27 20:25:00,
2013-04-27 22:30:00,64.4,56.3,29.85,South,182,7.0,11.0,75,0.00,,,0.25,VWS V14.01,2013-04-27 20:30:00,
2013-04-27 22:35:00,64.3,56.2,29.85,South,188,7.0,9.0,75,0.00,,,0.25,VWS V14.01,2013-04-27 20:35:00,
2013-04-27 22:40:00,64.3,56.2,29.85,SSE,159,6.0,9.0,75,0.00,,,0.25,VWS V14.01,2013-04-27 20:40:00,
2013-04-27 22:45:00,64.2,56.1,29.85,South,185,7.0,9.0,75,0.00,,,0.25,VWS V14.01,2013-04-27 20:45:00,
2013-04-27 22:50:00,64.1,56.0,29.85,South,171,6.0,9.0,75,0.00,,,0.25,VWS V14.01,2013-04-27 20:50:00,
2013-04-27 22:55:00,64.1,56.0,29.85,South,186,6.0,9.0,75,0.00,,,0.25,VWS V14.01,2013-04-27 20:55:00,
2013-04-27 23:00:00,64.1,56.4,29.85,South,186,4.0,9.0,76,0.00,,,0.25,VWS V14.01,2013-04-27 21:00:00,
2013-04-27 23:05:00,64.0,56.3,29.86,SSE,168,2.0,9.0,76,0.00,,,0.25,VWS V14.01,2013-04-27 21:05:00,
2013-04-27 23:10:00,64.0,56.7,29.86,South,182,3.0,9.0,77,0.00,,,0.25,VWS V14.01,2013-04-27 21:10:00,
2013-04-27 23:15:00,63.9,56.6,29.86,South,175,6.0,8.0,77,0.00,,,0.25,VWS V14.01,2013-04-27 21:15:00,
2013-04-27 23:20:00,63.8,56.8,29.86,South,180,3.0,8.0,78,0.00,,,0.25,VWS V14.01,2013-04-27 21:20:00,
2013-04-27 23:25:00,63.7,56.7,29.86,South,175,4.0,6.0,78,0.00,,,0.25,VWS V14.01,2013-04-27 21:25:00,
2013-04-27 23:30:00,63.7,56.7,29.86,South,182,4.0,8.0,78,0.00,,,0.25,VWS V14.01,2013-04-27 21:30:00,
2013-04-27 23:35:00,63.7,56.7,29.87,South,176,3.0,6.0,78,0.00,,,0.25,VWS V14.01,2013-04-27 21:35:00,
2013-04-27 23:40:00,63.7,57.1,29.86,SSE,154,4.0,6.0,79,0.00,,,0.25,VWS V14.01,2013-04-27 21:40:00,
2013-04-27 23:45:00,63.7,57.4,29.86,SSW,194,2.0,6.0,80,0.00,,,0.25,VWS V14.01,2013-04-27 21:45:00,
2013-04-27 23:50:00,63.6,57.3,29.86,South,171,4.0,7.0,80,0.00,,,0.25,VWS V14.01,2013-04-27 21:50:00,
2013-04-27 23:55:00,63.6,57.0,29.86,South,185,3.0,7.0,79,0.00,,,0.25,VWS V14.01,2013-04-27 21:55:00,